Casper, WY

6:40 PM MDT on July 26, 2017 (GMT -0600)
Natrona County International

Weather History for KCPR - September, 2013

Change the Weather History Date:

Wednesday, September 18, 2013

  Actual Average Record
Temperature  
Mean Temperature 60 °F 57 °F  
Max Temperature 80 °F 73 °F 92 °F (2014)
Min Temperature 39 °F 40 °F 19 °F (1965)
Degree Days  
Heating Degree Days 5 9  
Month to date heating degree days 37 100  
Since 1 July heating degree days 37 146  
Cooling Degree Days 0 0  
Month to date cooling degree days 79 24  
Year to date cooling degree days 617 421  
Growing Degree Days 11 (Base 50)    
Moisture  
Dew Point 40 °F    
Average Humidity 57    
Maximum Humidity 96    
Minimum Humidity 17    
Precipitation  
Precipitation 0.04 in 0.04 in 0.57 in (1946)
Month to date precipitation 0.45 0.59  
Year to date precipitation 9.65 9.67  
Snow  
Snow 0.00 in 0.00 in - ()
Month to date snowfall 0.0 0.5  
Since 1 July snowfall 0.0 0.5  
Since 1 September snowfall 0.0 0.5  
Snow Depth 0.00 in    
Sea Level Pressure  
Sea Level Pressure 29.71 in    
Wind  
Wind Speed 13 mph (WSW)    
Max Wind Speed 35 mph    
Max Gust Speed 43 mph    
Visibility 10 miles    
Events Rain , Thunderstorm    
T = Trace of Precipitation, MM = Missing Value Source: NWS Daily Summary

Daily Weather History Graph

Daily Weather History Graph

Search for Another Location

Airport or City:

Trip Planner

Search our weather history database for the weather conditions in past years. The results will help you decide how hot, cold, wet, or windy it might be!

Date:

Astronomy

Sep. 18, 2013 Rise Set
Actual Time 6:49 AM MDT 7:09 PM MDT
Civil Twilight 6:20 AM MDT 7:38 PM MDT
Nautical Twilight 5:47 AM MDT 8:11 PM MDT
Astronomical Twilight 5:13 AM MDT 8:45 PM MDT
Moon 6:34 PM MDT (9/18) 5:54 AM MDT (9/18)
Length of Visible Light 13h 17m
Length of Day
12h 20m
Waxing Gibbous, 99% of the Moon is Illuminated
Sep 18
Waxing Gibbous
Sep 19
Full
Sep 26
Last Quarter
Oct 4
New
Oct 11
First Quarter

Hourly Weather History & Observations

Time (MDT) Temp. Dew Point Humidity Pressure Visibility Wind Dir Wind Speed Gust Speed Precip Events Conditions
12:38 AM 66.2 °F 44.6 °F 46% 29.79 in 10.0 mi SSW 17.3 mph 24.2 mph N/A   Clear
12:53 AM 64.9 °F 46.0 °F 50% 29.57 in 10.0 mi SSW 15.0 mph - N/A   Clear
1:33 AM 68.0 °F 44.6 °F 43% 29.83 in 10.0 mi West 16.1 mph 38.0 mph N/A   Scattered Clouds
1:53 AM 60.1 °F 48.9 °F 67% 29.64 in 7.0 mi NNW 19.6 mph 26.5 mph 0.02 in Rain Rain
2:05 AM 57.2 °F 50.0 °F 77% 29.84 in 10.0 mi North 16.1 mph 24.2 mph 0.02 in Rain , Thunderstorm Light Rain
2:53 AM 54.0 °F 46.9 °F 77% 29.66 in 10.0 mi North 4.6 mph - 0.02 in   Partly Cloudy
3:53 AM 53.1 °F 48.0 °F 83% 29.66 in 10.0 mi Calm Calm - N/A   Mostly Cloudy
4:53 AM 53.1 °F 50.0 °F 89% 29.69 in 10.0 mi Calm Calm - 0.00 in   Overcast
5:53 AM 55.0 °F 48.0 °F 77% 29.68 in 10.0 mi SSE 6.9 mph - N/A   Mostly Cloudy
6:53 AM 52.0 °F 50.0 °F 93% 29.71 in 10.0 mi Calm Calm - N/A   Mostly Cloudy
7:53 AM 54.0 °F 48.9 °F 83% 29.70 in 10.0 mi SSW 4.6 mph - N/A   Scattered Clouds
8:53 AM 61.0 °F 48.9 °F 64% 29.67 in 10.0 mi ESE 4.6 mph - N/A   Clear
9:53 AM 68.0 °F 51.1 °F 55% 29.63 in 10.0 mi SW 12.7 mph - N/A   Clear
10:53 AM 72.0 °F 50.0 °F 46% 29.62 in 10.0 mi SW 21.9 mph 27.6 mph N/A   Scattered Clouds
11:53 AM 75.9 °F 46.0 °F 35% 29.60 in 10.0 mi SW 24.2 mph 31.1 mph N/A   Clear
12:53 PM 79.0 °F 36.0 °F 21% 29.57 in 10.0 mi WSW 32.2 mph 40.3 mph N/A   Clear
1:53 PM 79.0 °F 36.0 °F 21% 29.60 in 10.0 mi WSW 21.9 mph 36.8 mph N/A   Partly Cloudy
2:53 PM 78.1 °F 36.0 °F 22% 29.63 in 10.0 mi WSW 27.6 mph 40.3 mph N/A   Partly Cloudy
3:53 PM 73.9 °F 28.9 °F 19% 29.66 in 10.0 mi WSW 26.5 mph 35.7 mph N/A   Clear
4:53 PM 73.9 °F 28.0 °F 18% 29.67 in 10.0 mi West 27.6 mph 36.8 mph N/A   Clear
5:53 PM 71.1 °F 24.1 °F 17% 29.68 in 10.0 mi West 20.7 mph 34.5 mph N/A   Clear
6:53 PM 66.0 °F 25.0 °F 21% 29.74 in 10.0 mi West 18.4 mph 24.2 mph N/A   Clear
7:53 PM 59.0 °F 26.1 °F 28% 29.80 in 10.0 mi WNW 9.2 mph - N/A   Clear
8:53 PM 52.0 °F 27.0 °F 38% 29.83 in 10.0 mi West 8.1 mph - N/A   Clear
9:53 PM 48.9 °F 32.0 °F 52% 29.86 in 10.0 mi NW 4.6 mph - N/A   Clear
10:53 PM 46.0 °F 35.1 °F 66% 29.88 in 10.0 mi Calm Calm - N/A   Clear
11:53 PM 42.1 °F 36.0 °F 79% 29.90 in 10.0 mi North - - N/A   Clear